Location: Newark
(34.6283°N, 36.0776°E)
Time: 05:24:10
(UTC+00:00)

Envisat - Visible Passes

Search period start: 14 October 2019 00:00
Search period end: 24 October 2019 00:00
Orbit: 764 x 766 km, 98.1° (Epoch: 13 October)

Date Brightness Start Highest point End Pass type
(mag) Time Alt. Az. Time Alt. Az. Time Alt. Az.
14 Oct 3.9 16:10:38 10° S 16:15:33 51° W 16:20:31 10° NNW visible
15 Oct 3.0 15:33:47 10° SSE 15:38:48 67° ENE 15:43:51 10° N visible
15 Oct 6.2 17:16:44 10° WSW 17:18:13 11° W 17:19:42 10° WNW visible
16 Oct 5.1 16:36:52 10° SSW 16:41:09 28° W 16:45:29 10° NW visible
17 Oct 6.6 03:11:59 10° ENE 03:14:04 12° E 03:16:08 10° ESE visible
17 Oct 3.4 15:59:15 10° S 16:04:17 67° WSW 16:09:21 10° NNW visible
18 Oct 3.2 15:22:41 10° SSE 15:27:35 51° ENE 15:32:30 10° N visible
18 Oct 6.0 17:04:00 10° SW 17:06:51 15° W 17:09:41 10° WNW visible
19 Oct 4.6 16:25:13 10° SSW 16:29:50 36° W 16:34:30 10° NNW visible
20 Oct 3.0 15:47:56 10° SSE 15:53:01 86° WSW 15:58:07 10° NNW visible
21 Oct 3.4 15:11:41 10° SE 15:16:23 40° ENE 15:21:05 10° N visible
21 Oct 5.6 16:51:53 10° SW 16:55:30 19° W 16:59:07 10° NW visible
22 Oct 4.1 16:13:41 10° S 16:18:32 46° W 16:23:25 10° NNW visible
23 Oct 2.9 15:36:43 10° SSE 15:41:46 74° ENE 15:46:50 10° N visible
